MOLNIYA 3-31

Last updated on Nov. 15, 2019, 4:21 a.m. UTC

1 17328U 87008A   19317.82068859  .00000507  00000-0  00000+0 0  9992
2 17328  63.8337 227.0442 6709167 262.7413  22.6962  2.00557403236908
UTC
Height (km)
Latitude
Longitude
Inclination
Orbital Period
UTC large
Height (km)
Speed (km/s)
/
Latitude / Longitude
Inclination (degrees)
Orbital Period (minutes)
Azimuth
Elevation
Range (km)
Doppler Factor
iOS Compass Heading
iOS Angle

Next 30 passes for location: Hong Kong

Rise time Rise Azimuth (degrees) Set time Set Azimuth (degrees) Duration Max altitude (degrees)

No matching passes for this satellites